Tracking 17558 objects as of 10-February-2016
HD Live streaming from Space Station
objects crossing your sky now

NAVSTAR 28 (USA 85)

Track NAVSTAR 28 (USA 85) now!
NAVSTAR 28 (USA 85) is classified as:


NORAD ID: 22231
Int'l Code: 1992-079A
Perigee: 19,968.3 km
Apogee: 20,410.0 km
Inclination: 55.4 °
Period: 718.0 minutes
Semi major axis: 26560 km
RCS: 3.981 m2 (large)
Launch date: November 22, 1992
Source: United States (US)
Launch site: AIR FORCE EASTERN TEST RANGE (AFETR)
PRN:
Your satellite tracking list
Your tracking list is empty





NASA's NSSDC Master Catalog

Two Line Element Set (TLE):
1 22231U 92079A   16041.37615160  .00000054  00000-0  00000+0 0  9996
2 22231  55.4459 246.5171 0083142 293.0558  12.5320  2.0056613817013
Source of the keplerian elements: AFSPC

N2YO: 542